[[{"header":{"parameterUnit":"m.s-1","parameterCategory":1,"la1":30.2991,"la2":30.254,"lo1":-89.0895,"lo2":-89.0444,"dy":0.0017,"dx":0.0017,"nx":28,"ny":28,"refTime":"2023-04-23T21:00:00:Z","depth":0,"parameterNumber":2,"parameterNumberName":"U-component_of_WINDS"},"data":[0,0,0,0,0,0,0,0,0,0,0,0,0,0,0,0,0,0,0,0,0,0,0,0,0,0,0,0,0,0,0,0,0,0,0,0,0,0,0,0,0,0,0,0,0,0,0,0,0,0,0,0,0,0,0,0,0,0,-1.4078,-1.4077,0,-1.3934,-1.3933,-1.3931,-1.3785,-1.3783,-1.3781,-1.3779,-1.3631,-1.3629,-1.3627,0,0,0,0,0,0,0,0,0,0,0,0,0,-1.4228,-1.4226,-1.4078,-1.4077,-1.4075,-1.3935,-1.3933,-1.3931,-1.3785,-1.3782,-1.378,-1.3778,-1.3632,-1.363,-1.3627,0,0,0,0,0,0,0,0,0,0,0,0,0,-1.4131,-1.4225,-1.4079,-1.3985,-1.3975,-1.3935,-1.3933,-1.393,-1.3785,-1.3782,-1.3779,-1.3777,-1.3633,-1.363,-1.3627,-1.3667,0,0,-1.3617,-1.3616,0,0,0,0,0,0,0,0,-1.4137,-1.4126,-1.4001,-1.3992,-1.398,-1.3874,-1.3931,-1.3842,-1.3786,-1.3858,-1.3779,-1.3775,-1.3715,-1.3705,-1.3684,-1.3661,-1.3654,-1.3617,-1.3615,-1.3614,-1.3613,0,0,0,0,0,0,0,-1.4144,-1.4131,-1.4021,-1.3999,-1.3987,-1.3951,-1.3934,-1.3914,-1.3805,-1.3851,-1.384,-1.3825,-1.3709,-1.3688,-1.368,-1.3652,-1.3617,-1.3614,-1.3613,-1.3611,-1.3656,-1.3659,0,0,0,0,0,0,-1.4165,-1.4138,-1.4026,-1.4017,-1.4053,-1.395,-1.3931,-1.3911,-1.3804,-1.3785,-1.3828,-1.3819,-1.3694,-1.3684,-1.3674,-1.3715,-1.3614,-1.3611,-1.3609,-1.3653,-1.3656,-1.366,0,0,0,0,0,0,-1.4169,-1.4156,-1.4032,-1.4074,-1.4056,-1.3951,-1.393,-1.391,-1.3889,-1.3787,-1.3767,-1.3826,-1.3692,-1.3678,-1.367,-1.3708,-1.361,-1.3607,-1.3649,-1.3654,-1.3658,-1.3798,0,0,0,0,0,0,-1.4173,-1.4158,-1.4172,-1.4076,-1.4054,-1.4031,-1.3932,-1.391,-1.3884,-1.3871,-1.378,-1.3762,-1.3688,-1.3676,-1.3668,-1.3702,-1.3604,-1.3645,-1.3651,-1.3657,-1.379,-1.3807,-1.3822,0,0,0,0,0,-1.4179,-1.4217,-1.4174,-1.4161,-1.407,-1.4033,-1.4021,-1.3935,-1.3888,-1.3901,-1.3836,-1.3765,-1.3706,-1.3676,-1.3666,-1.37,-1.3643,-1.365,-1.3656,-1.3782,-1.3803,-1.3821,0,0,0,0,0,0,-1.4321,-1.4203,-1.4153,-1.4161,-1.4109,-1.4009,-1.4023,-1.396,-1.3919,-1.3909,-1.3804,-1.3784,-1.3789,-1.3743,-1.3713,-1.3734,-1.3664,-1.3669,-1.3764,-1.3783,-1.3799,-1.381,-1.3602,0,0,0,0,0,-1.4353,-1.4333,-1.4231,-1.4248,-1.4224,-1.4129,-1.4109,-1.4048,-1.3989,-1.3966,-1.39,-1.3845,-1.3814,-1.3796,-1.3761,-1.3782,-1.3761,-1.3801,-1.3817,-1.383,-1.3836,-1.3845,-1.3862,-1.3682,-1.3682,-1.3682,0,0,-1.4419,-1.4352,-1.4346,-1.4275,-1.4226,-1.4209,-1.4111,-1.4096,-1.4082,-1.3963,-1.3952,-1.3902,-1.3835,-1.3842,-1.3842,-1.3804,-1.3881,-1.3839,-1.3851,-1.3849,-1.3854,-1.3871,-1.3886,-1.3687,-1.3686,-1.3685,0,0,-1.453,-1.4478,-1.4486,-1.444,-1.4369,-1.4305,-1.4308,-1.4217,-1.418,-1.4167,-1.4078,-1.406,-1.4009,-1.3965,-1.3936,-1.4033,-1.3966,-1.4024,-1.4108,-1.4118,-1.4132,-1.4144,-1.4179,-1.4193,-1.403,-1.4031,-1.4031,0,-1.4621,-1.4591,-1.4499,-1.4489,-1.4461,-1.4354,-1.4363,-1.4322,-1.4244,-1.4227,-1.4186,-1.412,-1.4067,-1.4063,-1.4087,-1.4066,-1.4067,-1.4034,-1.4137,-1.4148,-1.4158,-1.4191,-1.4204,-1.4038,-1.4037,-1.4036,-1.4036,0,-1.4707,-1.4687,-1.4703,-1.463,-1.4604,-1.4604,-1.4512,-1.4496,-1.4438,-1.4379,-1.4368,-1.4301,-1.4252,-1.4246,-1.4189,-1.4235,-1.4214,-1.4157,-1.4084,-1.4185,-1.4213,-1.4225,-1.4049,-1.4046,-1.4044,-1.4042,0,0,-1.4902,-1.478,-1.4787,-1.4753,-1.4667,-1.465,-1.4646,-1.4598,-1.4587,-1.4537,-1.4531,-1.4491,-1.4438,-1.4405,-1.4342,-1.4351,-1.4433,-1.4292,-1.4289,-1.4322,-1.4481,-1.4525,-1.4541,-1.4389,-1.4391,-1.4393,-1.4487,0,-1.4999,-1.4985,-1.4902,-1.4912,-1.4893,-1.4792,-1.4788,-1.4736,-1.4681,-1.4658,-1.4597,-1.4571,-1.4502,-1.4482,-1.4486,-1.4423,-1.4464,-1.4414,-1.4383,-1.4383,-1.4404,-1.4556,-1.4602,-1.4694,-1.4498,-1.4499,-1.4501,0,-1.511,-1.5068,-1.5076,-1.4991,-1.498,-1.4978,-1.4929,-1.4907,-1.4846,-1.4806,-1.4771,-1.47,-1.469,-1.4623,-1.4608,-1.4577,-1.4559,-1.4526,-1.4528,-1.4522,-1.4448,-1.4555,-1.4721,-1.4736,-1.4517,-1.4516,-1.4515,0,-1.5253,-1.5198,-1.5196,-1.517,-1.5071,-1.5072,-1.5031,-1.4967,-1.4944,-1.49,-1.4885,-1.4841,-1.4818,-1.4786,-1.4705,-1.4663,-1.4701,-1.4626,-1.4668,-1.467,-1.468,-1.4681,-1.4847,-1.4669,-1.4669,-1.4668,-1.4668,0,-1.537,-1.538,-1.5259,-1.5258,-1.5265,-1.5171,-1.5181,-1.513,-1.5075,-1.5062,-1.4972,-1.4962,-1.4856,-1.4835,-1.4772,-1.4771,-1.4761,-1.4728,-1.4712,-1.4737,-1.4741,-1.4724,-1.4716,-1.4672,-1.4671,-1.467,-1.467,0,-1.5531,-1.5451,-1.5442,-1.5349,-1.5326,-1.5336,-1.5257,-1.5253,-1.5193,-1.5179,-1.517,-1.5077,-1.5047,-1.4964,-1.4913,-1.487,-1.4888,-1.4856,-1.4909,-1.4898,-1.4944,-1.4942,-1.5106,-1.5123,-1.4934,-1.4936,-1.4938,0,-1.5612,-1.5616,-1.5525,-1.551,-1.5473,-1.545,-1.5427,-1.5335,-1.5314,-1.5245,-1.525,-1.5213,-1.5179,-1.5136,-1.5064,-1.5025,-1.4992,-1.5052,-1.4985,-1.5011,-1.4994,-1.4995,-1.4995,-1.5067,-1.507,-1.5072,-1.5073,0,-1.5763,-1.5723,-1.5692,-1.5649,-1.5623,-1.5584,-1.554,-1.5533,-1.543,-1.5411,-1.538,-1.5354,-1.5302,-1.5267,-1.5217,-1.5175,-1.5108,-1.5095,-1.5103,-1.5129,-1.516,-1.5144,-1.4949,-1.5092,-1.509,-1.5089,-1.5088,-1.5087,-1.5886,-1.5886,-1.5822,-1.5791,-1.5749,-1.571,-1.5702,-1.5641,-1.5614,-1.5565,-1.5512,-1.5487,-1.5427,-1.5353,-1.5316,-1.5295,-1.5259,-1.527,-1.5273,-1.5277,-1.529,-1.5163,-1.5286,-1.5285,-1.5284,-1.5284,-1.5283,0,-1.6034,-1.5988,-1.596,-1.5902,-1.5878,-1.5817,-1.5765,-1.575,-1.5729,-1.5678,-1.5647,-1.5612,-1.5578,-1.5504,-1.5464,-1.5462,-1.543,-1.5454,-1.5454,-1.5445,-1.5323,-1.5321,-1.5481,-1.5481,-1.5481,-1.5481,-1.5481,-1.5481,-1.6108,-1.6105,-1.6058,-1.6034,-1.5987,-1.5962,-1.5938,-1.5902,-1.5862,-1.5827,-1.5798,-1.575,-1.5691,-1.5645,-1.5612,-1.5591,-1.5581,-1.5615,-1.5585,-1.5472,-1.5454,-1.5436,-1.5433,-1.5614,-1.5614,-1.5708,-1.5709,-1.571]},{"header":{"parameterUnit":"m.s-1","parameterCategory":1,"la1":30.2991,"la2":30.254,"lo1":-89.0895,"lo2":-89.0444,"dy":0.0017,"dx":0.0017,"nx":28,"ny":28,"refTime":"2023-04-23T21:00:00:Z","depth":0,"parameterNumber":3,"parameterNumberName":"V-component_of_WINDS"},"data":[0,0,0,0,0,0,0,0,0,0,0,0,0,0,0,0,0,0,0,0,0,0,0,0,0,0,0,0,0,0,0,0,0,0,0,0,0,0,0,0,0,0,0,0,0,0,0,0,0,0,0,0,0,0,0,0,0,0,1.02,1.0201,0,1.0243,1.0243,1.0244,1.0284,1.0284,1.0285,1.0285,1.0326,1.0327,1.0327,0,0,0,0,0,0,0,0,0,0,0,0,0,1.0151,1.0151,1.02,1.0201,1.0201,1.0243,1.0243,1.0244,1.0284,1.0284,1.0285,1.0286,1.0326,1.0327,1.0327,0,0,0,0,0,0,0,0,0,0,0,0,0,1.018,1.0152,1.02,1.0226,1.0229,1.0243,1.0243,1.0244,1.0284,1.0284,1.0285,1.0286,1.0326,1.0327,1.0327,1.0318,0,0,1.033,1.0331,0,0,0,0,0,0,0,0,1.0179,1.0182,1.0222,1.0225,1.0228,1.0259,1.0241,1.0269,1.0283,1.0263,1.0285,1.0286,1.0303,1.0306,1.0312,1.032,1.0322,1.033,1.0331,1.0331,1.0332,0,0,0,0,0,0,0,1.0177,1.0181,1.0217,1.0222,1.0226,1.0235,1.024,1.0246,1.0278,1.0265,1.0268,1.0272,1.0305,1.0311,1.0313,1.0322,1.033,1.0331,1.0332,1.0332,1.0324,1.0323,0,0,0,0,0,0,1.0171,1.0179,1.0216,1.0218,1.0205,1.0235,1.0241,1.0248,1.0278,1.0283,1.0272,1.0274,1.0309,1.0312,1.0315,1.0305,1.0331,1.0332,1.0333,1.0324,1.0324,1.0323,0,0,0,0,0,0,1.017,1.0174,1.0214,1.0199,1.0205,1.0235,1.0243,1.0248,1.0255,1.0283,1.0289,1.0272,1.031,1.0314,1.0317,1.0307,1.0333,1.0333,1.0325,1.0324,1.0323,1.0286,0,0,0,0,0,0,1.0168,1.0173,1.0171,1.0199,1.0206,1.0216,1.0242,1.0249,1.0257,1.026,1.0286,1.0291,1.0311,1.0315,1.0318,1.0309,1.0334,1.0326,1.0325,1.0323,1.0288,1.0283,1.0279,0,0,0,0,0,1.0166,1.0158,1.017,1.0175,1.0203,1.0216,1.0219,1.0243,1.0256,1.0253,1.0271,1.029,1.0308,1.0315,1.0319,1.031,1.0327,1.0325,1.0324,1.029,1.0284,1.028,0,0,0,0,0,0,1.0127,1.0162,1.0176,1.0177,1.0193,1.0222,1.0219,1.0237,1.0249,1.0252,1.028,1.0286,1.0285,1.0298,1.0306,1.0302,1.032,1.0319,1.0293,1.0288,1.0284,1.028,1.0335,0,0,0,0,0,1.0118,1.0126,1.0156,1.0154,1.0162,1.0189,1.0195,1.0212,1.023,1.0236,1.0255,1.027,1.0279,1.0285,1.0295,1.029,1.0296,1.0286,1.0281,1.0278,1.0276,1.0273,1.0269,1.0317,1.0317,1.0317,0,0,1.01,1.0121,1.0124,1.0147,1.0161,1.0167,1.0194,1.02,1.0205,1.0237,1.0241,1.0255,1.0274,1.0273,1.0274,1.0284,1.0264,1.0275,1.0272,1.0273,1.0271,1.0267,1.0262,1.0316,1.0316,1.0316,0,0,1.0071,1.0088,1.0088,1.0102,1.0123,1.0142,1.0141,1.0168,1.0179,1.0184,1.0208,1.0214,1.0229,1.0241,1.0249,1.0225,1.0242,1.0227,1.0205,1.0202,1.0198,1.0195,1.0185,1.0181,1.0225,1.0225,1.0225,0,1.0046,1.0058,1.0085,1.0089,1.0098,1.0129,1.0128,1.014,1.0163,1.0168,1.0179,1.0199,1.0214,1.0216,1.0209,1.0216,1.0215,1.0224,1.0197,1.0194,1.0191,1.0182,1.0178,1.0223,1.0224,1.0224,1.0224,0,1.0025,1.0033,1.003,1.0052,1.0061,1.0062,1.0089,1.0094,1.0111,1.0127,1.0132,1.0151,1.0165,1.0167,1.0183,1.0171,1.0176,1.0191,1.021,1.0184,1.0175,1.0172,1.022,1.0221,1.0222,1.0222,0,0,0.9972,1.001,1.0008,1.0018,1.0044,1.005,1.0053,1.0067,1.0071,1.0086,1.0088,1.01,1.0115,1.0124,1.0141,1.0139,1.0117,1.0155,1.0156,1.0146,1.0103,1.0091,1.0086,1.0129,1.0128,1.0128,1.0101,0,0.9946,0.9953,0.9978,0.9977,0.9984,1.0013,1.0015,1.0031,1.0046,1.0053,1.0071,1.0078,1.0097,1.0103,1.0102,1.012,1.0108,1.0122,1.013,1.013,1.0123,1.0082,1.0069,1.0043,1.0098,1.0098,1.0098,0,0.9917,0.9931,0.9931,0.9956,0.996,0.9962,0.9976,0.9984,1.0001,1.0013,1.0023,1.0043,1.0046,1.0065,1.0069,1.0078,1.0082,1.0091,1.0091,1.0091,1.0111,1.008,1.0035,1.0031,1.0093,1.0093,1.0094,0,0.9876,0.9895,0.9897,0.9905,0.9936,0.9936,0.9948,0.9967,0.9974,0.9987,0.9991,1.0004,1.0011,1.002,1.0042,1.0053,1.0043,1.0063,1.0051,1.0051,1.0047,1.0046,1.0,1.0052,1.0052,1.0052,1.0052,0,0.9844,0.9843,0.988,0.9881,0.988,0.9908,0.9906,0.9921,0.9937,0.9941,0.9967,0.997,1.0,1.0006,1.0023,1.0023,1.0026,1.0035,1.0039,1.0032,1.003,1.0034,1.0036,1.0051,1.0051,1.0051,1.0051,0,0.9799,0.9823,0.9827,0.9856,0.9863,0.9861,0.9884,0.9886,0.9904,0.9908,0.9911,0.9938,0.9946,0.9969,0.9984,0.9995,0.999,0.9999,0.9984,0.9986,0.9972,0.9973,0.9926,0.9921,0.9976,0.9976,0.9976,0,0.9776,0.9776,0.9804,0.9809,0.982,0.9828,0.9835,0.9862,0.9869,0.9889,0.9888,0.9899,0.9908,0.992,0.994,0.9951,0.996,0.9943,0.9962,0.9954,0.9958,0.9957,0.9957,0.9938,0.9938,0.9937,0.9937,0,0.9733,0.9745,0.9755,0.9769,0.9777,0.9789,0.9803,0.9805,0.9836,0.9841,0.9851,0.9858,0.9873,0.9883,0.9897,0.9908,0.9927,0.9931,0.9928,0.992,0.9911,0.9914,0.9971,0.9931,0.9932,0.9932,0.9933,0.9933,0.9697,0.9698,0.9718,0.9728,0.9741,0.9753,0.9756,0.9774,0.9782,0.9797,0.9813,0.982,0.9837,0.9858,0.9868,0.9873,0.9883,0.988,0.9879,0.9877,0.9873,0.9911,0.9876,0.9876,0.9877,0.9877,0.9877,0,0.9654,0.9669,0.9678,0.9696,0.9704,0.9722,0.9738,0.9742,0.9749,0.9764,0.9773,0.9783,0.9793,0.9814,0.9825,0.9825,0.9834,0.9827,0.9826,0.9828,0.9865,0.9865,0.9819,0.9819,0.9819,0.9819,0.9819,0.9819,0.9633,0.9635,0.9649,0.9658,0.9672,0.968,0.9687,0.9698,0.971,0.972,0.9728,0.9742,0.9759,0.9772,0.9781,0.9787,0.9789,0.9779,0.9788,0.9821,0.9826,0.9831,0.9832,0.978,0.978,0.9751,0.9751,0.975]}]]